This is the latest recevied weather packets stored in our database for station/object ALTO-WX. If no packets are shown the sender has not sent any weather packets the latest 10 day(s).
| Time | Temp. | Humidity | Pressure | Rain* | Wind** | Luminosity | Snow |
|---|---|---|---|---|---|---|---|
| 1778357739 | 17.78° C | 41% | 975.5 hPa | 0 mm | - | - | - |
| 1778356863 | 18.33° C | 40% | 974.8 hPa | 0 mm | - | - | - |
| 1778355934 | 18.33° C | 36% | 974.2 hPa | 0 mm | - | - | - |
| 1778355055 | 17.78° C | 36% | 974.2 hPa | 0 mm | - | - | - |
| 1778354139 | 18.33° C | 36% | 974.3 hPa | 0 mm | - | - | - |
| 1778353259 | 18.33° C | 36% | 974.3 hPa | 0 mm | - | - | - |
| 1778352339 | 18.33° C | 47% | 974.1 hPa | 0 mm | - | - | - |
| 1778351451 | 16.11° C | 53% | 974.2 hPa | 0 mm | - | - | - |
| 1778350539 | 16.67° C | 53% | 974.2 hPa | 0 mm | - | - | - |
| 1778349667 | 17.22° C | 53% | 974.2 hPa | 0 mm | - | - | - |
| 1778348739 | 16.67° C | 59% | 974.9 hPa | 0 mm | - | - | - |
| 1778347857 | 16.11° C | 50% | 974.6 hPa | 0 mm | - | - | - |
| 1778346939 | 17.22° C | 50% | 974.7 hPa | 0 mm | - | - | - |
| 1778346066 | 17.22° C | 50% | 974.7 hPa | 0 mm | - | - | - |
| 1778345139 | 17.22° C | 63% | 973.9 hPa | 0 mm | - | - | - |
| 1778344254 | 16.67° C | 69% | 973.3 hPa | 0 mm | - | - | - |
| 1778343334 | 16.67° C | 69% | 973.3 hPa | 0 mm | - | - | - |
| 1778342462 | 16.67° C | 69% | 973.3 hPa | 0 mm | - | - | - |
| 1778341539 | 16.11° C | 63% | 973.9 hPa | 0 mm | - | - | - |
| 1778340656 | 16.67° C | 68% | 973.5 hPa | 0 mm | - | - | - |
| 1778339739 | 16.11° C | 68% | 973.5 hPa | 0 mm | - | - | - |
| 1778338861 | 15.56° C | 68% | 973.5 hPa | 0 mm | - | - | - |
| 1778337939 | 15° C | 69% | 972.9 hPa | 0 mm | - | - | - |
| 1778337052 | 14.44° C | 68% | 973.4 hPa | 0 mm | - | - | - |
| 1778336139 | 14.44° C | 68% | 973.5 hPa | 0 mm | - | - | - |
* Rain latest hour (hover to see other rain measurements)
** Current wind speed in m/s (hover to see current wind gust speed)